Location: Aula-Vintri
(58.3875°N, 22.4322°E)
Time: 02:00:37
(UTC+00:00)

Meteor 2-10 - Pass Details

Date: 13 October 2019
Orbit: 738 x 869 km, 81.2° (Epoch: 17 November)

Event Time Altitude Azimuth Distance (km) Brightness Sun altitude
Rises 17:21:53 0° 179° (S) 3,211 7.1 -15.2°
Reaches altitude 10° 17:24:16 10° 176° (S) 2,276 6.3 -15.5°
Maximum altitude 17:29:15 57° 99° (E) 879 3.9 -16.2°
Drops below altitude 10° 17:34:11 10° 21° (NNE) 2,262 6.3 -16.8°
Sets 17:36:33 0° 18° (NNE) 3,190 7.2 -17.1°
